Flag for U.S.A. Weather past 2 weeks in Citrus Heights, California, U.S.A.

Now
75 °F

Passing clouds.


Feels Like: 77 °F
Forecast: 70 / 98 °F
Wind: 6 mph from Southeast

Location: Mather Field

Current Time: Jul 29, 2014 at 1:00:15 AM

Latest Report: Jul 28, 2014 at 10:52 PM


Visibility: 10 mi

Pressure: 29.99 "Hg

Humidity: 36%

Dew point: 46 °F

Location of Citrus HeightsLocation

Historic Weather in Citrus Heights — Graph

°F

Citrus Heights temperature yesterday

Maximum temperature yesterday: 93 °F (at 3:46 PM)
Minimum temperature yesterday: 61 °F (at 5:45 AM)
Average temperature yesterday: 79 °F

Past Weeks' High & Low Weather Summary

 TemperatureHumidityPressure
High106 °F (Jul 14, 3:55 PM)100% (Jul 19, 4:55 AM)30.13 "Hg (Jul 19, 4:55 AM)
Low55 °F (Jul 23, 5:46 AM)8% (Jul 25, 7:45 PM)29.77 "Hg (Jul 25, 5:55 PM)
Average77 °F51%29.93 "Hg
* Reported Jul 14 4:52 AM — Jul 28 10:52 PM, Citrus Heights, Weather by CustomWeather, © 2014

Note: Actual official high and low records may vary slightly from our data, if they occured in-between our weather recording intervals... More about our weather records

Advertising

Citrus Heights weather history for previous 24 hours

 ConditionsComfort  
Time TempWeatherWind HumidityBarometerVisibility
10:52 PM
Jul 28
75 °FPassing clouds.6 mph36%29.99 "Hg10 mi
9:47 PM77 °FPassing clouds.8 mph34%29.98 "Hg10 mi
8:55 PM81 °FPartly sunny.12 mph34%29.97 "Hg10 mi
7:50 PM84 °FPartly sunny.8 mph31%29.96 "Hg10 mi
6:55 PM90 °FPartly sunny.9 mph21%29.95 "Hg10 mi
5:45 PM93 °FPartly sunny.15 mph17%29.94 "Hg10 mi
3:46 PM93 °FPartly sunny.5 mph17%29.96 "Hg10 mi
2:46 PM91 °FPartly sunny.12 mph20%29.97 "Hg10 mi
1:46 PM91 °FPartly sunny.10 mph21%29.98 "Hg10 mi
12:46 PM86 °FPartly sunny.6 mph31%29.99 "Hg10 mi
11:46 AM84 °FPartly sunny.9 mph35%30.01 "Hg10 mi
10:49 AM81 °FPartly sunny.10 mph39%30.00 "Hg10 mi
9:55 AM75 °FPassing clouds.7 mph47%30.00 "Hg10 mi
8:49 AM70 °FPassing clouds.6 mph57%29.99 "Hg10 mi
7:46 AM66 °FPassing clouds.8 mph64%29.97 "Hg10 mi
6:45 AM63 °FPassing clouds.7 mph68%29.96 "Hg10 mi
5:45 AM61 °FPassing clouds.6 mph63%29.94 "Hg10 mi
4:55 AM63 °FPassing clouds.5 mph59%29.93 "Hg10 mi
Weather by CustomWeather, © 2014

See weather overviewHow to use our weather pages